Time,TemperatureF,DewpointF,PressureIn,WindDirection,WindDirectionDegrees,WindSpeedMPH,WindSpeedGustMPH,Humidity,HourlyPrecipIn,Conditions,Clouds,dailyrainin,SoftwareType,DateUTC
2013-03-30 00:00:00,46.1,32.1,30.06,West,272,11.5,11.5,58,0.00,OVC,,0.00,WeatherDisplay:10.37,2013-03-30 04:00:00,
2013-03-30 00:02:00,46.1,32.6,30.06,NW,308,11.5,11.5,59,0.00,FEW,,0.00,WeatherDisplay:10.37,2013-03-30 04:02:00,
2013-03-30 00:07:00,46.0,32.5,30.06,NW,305,11.5,11.5,59,0.00,FEW,,0.00,WeatherDisplay:10.37,2013-03-30 04:07:00,
2013-03-30 00:12:00,46.0,32.5,30.07,NW,319,6.0,6.0,59,0.00,FEW,,0.00,WeatherDisplay:10.37,2013-03-30 04:12:00,
2013-03-30 00:17:00,45.9,32.4,30.07,WNW,289,5.8,5.8,59,0.00,FEW,,0.00,WeatherDisplay:10.37,2013-03-30 04:17:00,
2013-03-30 00:22:00,45.8,32.3,30.07,WNW,286,3.5,3.5,59,0.00,FEW,,0.00,WeatherDisplay:10.37,2013-03-30 04:22:00,
2013-03-30 00:27:00,45.8,32.3,30.07,WNW,302,5.8,5.8,59,0.00,FEW,,0.00,WeatherDisplay:10.37,2013-03-30 04:27:00,
2013-03-30 00:32:00,45.7,32.2,30.07,West,269,4.6,4.6,59,0.00,FEW,,0.00,WeatherDisplay:10.37,2013-03-30 04:32:00,
2013-03-30 00:38:00,45.7,32.2,30.07,WNW,293,3.5,3.5,59,0.00,FEW,,0.00,WeatherDisplay:10.37,2013-03-30 04:38:00,
2013-03-30 00:43:00,45.6,32.1,30.07,NW,321,6.0,6.0,59,0.00,FEW,,0.00,WeatherDisplay:10.37,2013-03-30 04:43:00,
2013-03-30 00:48:00,45.5,32.4,30.07,West,279,6.0,6.0,60,0.00,FEW,,0.00,WeatherDisplay:10.37,2013-03-30 04:48:00,
2013-03-30 00:53:00,45.5,32.4,30.07,West,274,6.0,6.0,60,0.00,FEW,,0.00,WeatherDisplay:10.37,2013-03-30 04:53:00,
2013-03-30 00:58:00,45.4,32.3,30.07,WNW,286,5.8,5.8,60,0.00,FEW,,0.00,WeatherDisplay:10.37,2013-03-30 04:58:00,
2013-03-30 01:04:00,45.3,32.2,30.07,West,279,4.6,4.6,60,0.00,OVC,,0.00,WeatherDisplay:10.37,2013-03-30 05:04:00,
2013-03-30 01:09:00,45.2,32.1,30.07,WNW,286,3.5,3.5,60,0.00,OVC,,0.00,WeatherDisplay:10.37,2013-03-30 05:09:00,
2013-03-30 01:14:00,45.1,32.0,30.07,WNW,295,5.8,5.8,60,0.00,OVC,,0.00,WeatherDisplay:10.37,2013-03-30 05:14:00,
2013-03-30 01:19:00,45.0,32.3,30.07,WNW,290,3.5,3.5,61,0.00,OVC,,0.00,WeatherDisplay:10.37,2013-03-30 05:19:00,
2013-03-30 01:24:00,45.0,32.3,30.07,NW,311,4.6,4.6,61,0.00,OVC,,0.00,WeatherDisplay:10.37,2013-03-30 05:24:00,
2013-03-30 01:29:00,44.9,32.3,30.07,NW,317,3.5,3.5,61,0.00,OVC,,0.00,WeatherDisplay:10.37,2013-03-30 05:29:00,
2013-03-30 01:34:00,44.9,32.3,30.07,NW,306,4.6,4.6,61,0.00,OVC,,0.00,WeatherDisplay:10.37,2013-03-30 05:34:00,
2013-03-30 01:40:00,44.9,32.3,30.07,WNW,299,6.9,6.9,61,0.00,OVC,,0.00,WeatherDisplay:10.37,2013-03-30 05:40:00,
2013-03-30 01:45:00,44.9,32.7,30.07,WNW,295,2.0,7.0,62,0.00,OVC,,0.00,WeatherDisplay:10.37,2013-03-30 05:45:00,
2013-03-30 01:50:00,44.9,32.3,30.07,WNW,298,4.0,4.0,61,0.00,OVC,,0.00,WeatherDisplay:10.37,2013-03-30 05:50:00,
2013-03-30 01:55:00,44.9,32.7,30.07,WNW,296,4.0,4.0,62,0.00,OVC,,0.00,WeatherDisplay:10.37,2013-03-30 05:55:00,
2013-03-30 02:00:00,44.8,32.6,30.07,WNW,287,5.8,5.8,62,0.00,OVC,,0.00,WeatherDisplay:10.37,2013-03-30 06:00:00,
2013-03-30 02:05:00,44.8,32.6,30.07,WNW,301,2.3,2.3,62,0.00,BKN,,0.00,WeatherDisplay:10.37,2013-03-30 06:05:00,
2013-03-30 02:10:00,44.8,32.6,30.07,WNW,300,4.6,4.6,62,0.00,BKN,,0.00,WeatherDisplay:10.37,2013-03-30 06:10:00,
2013-03-30 02:15:00,44.7,32.5,30.07,WNW,300,8.1,8.1,62,0.00,BKN,,0.00,WeatherDisplay:10.37,2013-03-30 06:15:00,
2013-03-30 02:20:00,44.7,32.5,30.07,NW,312,4.6,4.6,62,0.00,BKN,,0.00,WeatherDisplay:10.37,2013-03-30 06:20:00,
2013-03-30 02:25:00,44.7,32.5,30.07,NW,310,8.0,8.0,62,0.00,BKN,,0.00,WeatherDisplay:10.37,2013-03-30 06:25:00,
2013-03-30 02:31:00,44.7,32.5,30.07,NW,317,3.5,3.5,62,0.00,BKN,,0.00,WeatherDisplay:10.37,2013-03-30 06:31:00,
2013-03-30 02:36:00,44.6,32.4,30.07,NW,317,4.6,4.6,62,0.00,BKN,,0.00,WeatherDisplay:10.37,2013-03-30 06:36:00,
2013-03-30 02:41:00,44.6,32.4,30.07,WNW,298,4.6,4.6,62,0.00,BKN,,0.00,WeatherDisplay:10.37,2013-03-30 06:41:00,
2013-03-30 02:46:00,44.6,32.4,30.07,NW,311,8.1,8.1,62,0.00,BKN,,0.00,WeatherDisplay:10.37,2013-03-30 06:46:00,
2013-03-30 02:51:00,44.5,32.7,30.07,NW,317,5.8,5.8,63,0.00,BKN,,0.00,WeatherDisplay:10.37,2013-03-30 06:51:00,
2013-03-30 02:56:00,44.5,32.7,30.07,NW,304,6.9,6.9,63,0.00,BKN,,0.00,WeatherDisplay:10.37,2013-03-30 06:56:00,
2013-03-30 03:02:00,44.4,32.6,30.07,West,263,6.9,6.9,63,0.00,CLR,,0.00,WeatherDisplay:10.37,2013-03-30 07:02:00,
2013-03-30 03:07:00,44.3,32.5,30.07,NW,309,8.1,8.1,63,0.00,CLR,,0.00,WeatherDisplay:10.37,2013-03-30 07:07:00,
2013-03-30 03:12:00,44.2,32.4,30.07,West,277,5.8,5.8,63,0.00,CLR,,0.00,WeatherDisplay:10.37,2013-03-30 07:12:00,
2013-03-30 03:17:00,44.1,32.3,30.07,West,280,6.9,6.9,63,0.00,CLR,,0.00,WeatherDisplay:10.37,2013-03-30 07:17:00,
2013-03-30 03:22:00,44.1,32.3,30.07,WNW,288,4.6,4.6,63,0.00,CLR,,0.00,WeatherDisplay:10.37,2013-03-30 07:22:00,
2013-03-30 03:27:00,44.0,32.2,30.07,WNW,285,5.8,5.8,63,0.00,CLR,,0.00,WeatherDisplay:10.37,2013-03-30 07:27:00,
2013-03-30 03:32:00,43.9,32.1,30.07,SW,228,5.8,5.8,63,0.00,CLR,,0.00,WeatherDisplay:10.37,2013-03-30 07:32:00,
2013-03-30 03:37:00,43.8,32.4,30.07,West,276,6.9,6.9,64,0.00,CLR,,0.00,WeatherDisplay:10.37,2013-03-30 07:37:00,
2013-03-30 03:43:00,43.7,32.3,30.07,West,277,7.0,7.0,64,0.00,CLR,,0.00,WeatherDisplay:10.37,2013-03-30 07:43:00,
2013-03-30 03:48:00,43.6,32.2,30.07,NW,319,5.8,5.8,64,0.00,CLR,,0.00,WeatherDisplay:10.37,2013-03-30 07:48:00,
2013-03-30 03:53:00,43.5,32.5,30.07,NW,319,4.6,4.6,65,0.00,CLR,,0.00,WeatherDisplay:10.37,2013-03-30 07:53:00,
2013-03-30 03:58:00,43.4,32.4,30.07,WNW,284,6.9,6.9,65,0.00,CLR,,0.00,WeatherDisplay:10.37,2013-03-30 07:58:00,
2013-03-30 04:03:00,43.3,32.3,30.07,WNW,292,8.1,8.1,65,0.00,CLR,,0.00,WeatherDisplay:10.37,2013-03-30 08:03:00,
2013-03-30 04:08:00,43.1,32.1,30.07,WNW,284,8.1,8.1,65,0.00,CLR,,0.00,WeatherDisplay:10.37,2013-03-30 08:08:00,
2013-03-30 04:13:00,43.0,32.0,30.07,WNW,282,6.9,6.9,65,0.00,CLR,,0.00,WeatherDisplay:10.37,2013-03-30 08:13:00,
2013-03-30 04:18:00,42.8,32.2,30.07,WNW,292,5.0,5.0,66,0.00,CLR,,0.00,WeatherDisplay:10.37,2013-03-30 08:18:00,
2013-03-30 04:23:00,42.7,32.1,30.07,WNW,294,3.5,3.5,66,0.00,CLR,,0.00,WeatherDisplay:10.37,2013-03-30 08:23:00,
2013-03-30 04:28:00,42.5,31.9,30.07,WNW,294,4.6,4.6,66,0.00,CLR,,0.00,WeatherDisplay:10.37,2013-03-30 08:28:00,
2013-03-30 04:34:00,42.4,31.8,30.07,West,276,6.9,6.9,66,0.00,CLR,,0.00,WeatherDisplay:10.37,2013-03-30 08:34:00,
2013-03-30 04:39:00,42.2,31.6,30.07,WNW,288,3.5,3.5,66,0.00,CLR,,0.00,WeatherDisplay:10.37,2013-03-30 08:39:00,
2013-03-30 04:44:00,42.1,31.9,30.07,West,279,3.5,3.5,67,0.00,CLR,,0.00,WeatherDisplay:10.37,2013-03-30 08:44:00,
2013-03-30 04:49:00,41.9,31.7,30.07,WNW,300,3.5,3.5,67,0.00,CLR,,0.00,WeatherDisplay:10.37,2013-03-30 08:49:00,
2013-03-30 04:54:00,41.8,31.6,30.07,WNW,295,3.5,3.5,67,0.00,CLR,,0.00,WeatherDisplay:10.37,2013-03-30 08:54:00,
2013-03-30 04:59:00,41.7,31.5,30.07,WNW,292,1.1,1.4,67,0.00,CLR,,0.00,WeatherDisplay:10.37,2013-03-30 08:59:00,
2013-03-30 05:05:00,41.6,31.8,30.07,WNW,292,3.5,3.5,68,0.00,CLR,,0.00,WeatherDisplay:10.37,2013-03-30 09:05:00,
2013-03-30 05:10:00,41.5,31.7,30.07,WNW,292,1.0,0.0,68,0.00,CLR,,0.00,WeatherDisplay:10.37,2013-03-30 09:10:00,
2013-03-30 05:15:00,41.4,31.6,30.07,WNW,292,3.5,3.5,68,0.00,CLR,,0.00,WeatherDisplay:10.37,2013-03-30 09:15:00,
2013-03-30 05:20:00,41.3,31.5,30.07,WNW,301,5.0,5.0,68,0.00,CLR,,0.00,WeatherDisplay:10.37,2013-03-30 09:20:00,
2013-03-30 05:25:00,41.2,31.4,30.07,WNW,303,4.6,4.6,68,0.00,CLR,,0.00,WeatherDisplay:10.37,2013-03-30 09:25:00,
2013-03-30 05:30:00,41.1,31.7,30.08,NW,309,4.6,4.6,69,0.00,CLR,,0.00,WeatherDisplay:10.37,2013-03-30 09:30:00,
2013-03-30 05:34:00,41.0,31.6,30.08,NW,308,2.3,2.3,69,0.00,CLR,,0.00,WeatherDisplay:10.37,2013-03-30 09:34:00,
2013-03-30 05:39:00,40.9,31.5,30.08,NW,304,3.5,3.5,69,0.00,CLR,,0.00,WeatherDisplay:10.37,2013-03-30 09:39:00,
2013-03-30 05:44:00,40.8,31.4,30.07,NW,311,5.0,5.0,69,0.00,CLR,,0.00,WeatherDisplay:10.37,2013-03-30 09:44:00,
2013-03-30 05:49:00,40.7,31.3,30.08,NW,319,5.8,5.8,69,0.00,CLR,,0.00,WeatherDisplay:10.37,2013-03-30 09:49:00,
2013-03-30 05:54:00,40.6,31.6,30.08,NW,319,3.5,3.5,70,0.00,CLR,,0.00,WeatherDisplay:10.37,2013-03-30 09:54:00,
2013-03-30 05:59:00,40.5,31.5,30.08,NW,312,3.5,3.5,70,0.00,CLR,,0.00,WeatherDisplay:10.37,2013-03-30 09:59:00,
2013-03-30 06:05:00,40.4,31.4,30.08,NW,312,3.5,3.5,70,0.00,CLR,,0.00,WeatherDisplay:10.37,2013-03-30 10:05:00,
2013-03-30 06:10:00,40.4,31.4,30.08,NW,312,2.3,2.3,70,0.00,CLR,,0.00,WeatherDisplay:10.37,2013-03-30 10:10:00,
2013-03-30 06:15:00,40.3,31.3,30.08,NW,311,3.5,3.5,70,0.00,CLR,,0.00,WeatherDisplay:10.37,2013-03-30 10:15:00,
2013-03-30 06:20:00,40.2,31.5,30.08,NW,313,5.8,5.8,71,0.00,CLR,,0.00,WeatherDisplay:10.37,2013-03-30 10:20:00,
2013-03-30 06:25:00,40.2,31.5,30.08,WNW,300,3.5,3.5,71,0.00,CLR,,0.00,WeatherDisplay:10.37,2013-03-30 10:25:00,
2013-03-30 06:31:00,40.2,31.5,30.08,NW,319,3.5,3.5,71,0.00,CLR,,0.00,WeatherDisplay:10.37,2013-03-30 10:31:00,
2013-03-30 06:36:00,40.3,31.6,30.08,NW,306,5.8,5.8,71,0.00,CLR,,0.00,WeatherDisplay:10.37,2013-03-30 10:36:00,
2013-03-30 06:41:00,40.3,31.6,30.09,NW,325,3.5,3.5,71,0.00,CLR,,0.00,WeatherDisplay:10.37,2013-03-30 10:41:00,
2013-03-30 06:47:00,40.3,31.6,30.09,NNW,329,4.0,4.0,71,0.00,CLR,,0.00,WeatherDisplay:10.37,2013-03-30 10:47:00,
2013-03-30 06:52:00,40.4,31.7,30.09,NW,313,1.1,1.1,71,0.00,CLR,,0.00,WeatherDisplay:10.37,2013-03-30 10:52:00,
2013-03-30 06:57:00,40.4,31.7,30.09,NW,315,3.5,3.5,71,0.00,CLR,,0.00,WeatherDisplay:10.37,2013-03-30 10:57:00,
2013-03-30 07:03:00,40.6,32.3,30.09,NW,315,0.0,0.0,72,0.00,CLR,,0.00,WeatherDisplay:10.37,2013-03-30 11:03:00,
2013-03-30 07:08:00,40.8,32.5,30.09,NW,315,0.0,0.0,72,0.00,CLR,,0.00,WeatherDisplay:10.37,2013-03-30 11:08:00,
2013-03-30 07:13:00,41.2,32.9,30.09,NW,315,0.0,0.0,72,0.00,CLR,,0.00,WeatherDisplay:10.37,2013-03-30 11:13:00,
2013-03-30 07:19:00,41.4,33.4,30.09,SSW,209,3.5,3.5,73,0.00,CLR,,0.00,WeatherDisplay:10.37,2013-03-30 11:19:00,
2013-03-30 07:24:00,41.5,33.1,30.09,SSW,213,1.1,0.0,72,0.00,CLR,,0.00,WeatherDisplay:10.37,2013-03-30 11:24:00,
2013-03-30 07:29:00,41.8,33.1,30.09,NW,326,5.8,5.8,71,0.00,CLR,,0.00,WeatherDisplay:10.37,2013-03-30 11:29:00,
2013-03-30 07:34:00,42.1,33.0,30.09,NW,326,4.0,4.0,70,0.00,CLR,,0.00,WeatherDisplay:10.37,2013-03-30 11:34:00,
2013-03-30 07:39:00,42.3,33.2,30.09,NW,314,3.5,3.5,70,0.00,CLR,,0.00,WeatherDisplay:10.37,2013-03-30 11:39:00,
2013-03-30 07:45:00,42.4,32.9,30.09,NW,323,7.0,7.0,69,0.00,CLR,,0.00,WeatherDisplay:10.37,2013-03-30 11:45:00,
2013-03-30 07:50:00,42.4,32.6,30.09,NW,314,3.5,3.5,68,0.00,CLR,,0.00,WeatherDisplay:10.37,2013-03-30 11:50:00,
2013-03-30 07:55:00,42.5,32.7,30.10,NNW,336,7.0,7.0,68,0.00,CLR,,0.00,WeatherDisplay:10.37,2013-03-30 11:55:00,
2013-03-30 08:00:00,42.4,32.6,30.10,NW,319,9.2,9.2,68,0.00,CLR,,0.00,WeatherDisplay:10.37,2013-03-30 12:00:00,
2013-03-30 08:05:00,42.6,33.1,30.10,WNW,303,3.5,3.5,69,0.00,CLR,,0.00,WeatherDisplay:10.37,2013-03-30 12:05:00,
2013-03-30 08:10:00,42.9,33.4,30.10,NW,304,3.5,3.5,69,0.00,CLR,,0.00,WeatherDisplay:10.37,2013-03-30 12:10:00,
2013-03-30 08:16:00,43.2,33.0,30.10,NW,314,6.9,6.9,67,0.00,CLR,,0.00,WeatherDisplay:10.37,2013-03-30 12:16:00,
2013-03-30 08:22:00,43.4,33.2,30.10,NW,315,7.0,7.0,67,0.00,CLR,,0.00,WeatherDisplay:10.37,2013-03-30 12:22:00,
2013-03-30 08:27:00,43.5,32.9,30.10,NW,314,10.4,10.4,66,0.00,CLR,,0.00,WeatherDisplay:10.37,2013-03-30 12:27:00,
2013-03-30 08:32:00,43.6,33.0,30.10,WNW,292,11.5,11.5,66,0.00,CLR,,0.00,WeatherDisplay:10.37,2013-03-30 12:32:00,
2013-03-30 08:37:00,43.8,33.2,30.10,NW,304,9.2,9.2,66,0.00,CLR,,0.00,WeatherDisplay:10.37,2013-03-30 12:37:00,
2013-03-30 08:43:00,44.0,33.0,30.10,NW,306,16.1,16.1,65,0.00,CLR,,0.00,WeatherDisplay:10.37,2013-03-30 12:43:00,
2013-03-30 08:48:00,44.3,33.3,30.10,NW,319,11.5,11.5,65,0.00,CLR,,0.00,WeatherDisplay:10.37,2013-03-30 12:48:00,
2013-03-30 08:53:00,44.5,33.1,30.10,WNW,298,11.0,11.0,64,0.00,CLR,,0.00,WeatherDisplay:10.37,2013-03-30 12:53:00,
2013-03-30 08:58:00,44.7,33.3,30.10,NW,309,9.2,9.2,64,0.00,CLR,,0.00,WeatherDisplay:10.37,2013-03-30 12:58:00,
2013-03-30 09:04:00,44.7,32.9,30.10,NW,319,11.5,11.5,63,0.00,CLR,,0.00,WeatherDisplay:10.37,2013-03-30 13:04:00,
2013-03-30 09:09:00,44.8,33.0,30.10,WNW,295,11.5,11.5,63,0.00,CLR,,0.00,WeatherDisplay:10.37,2013-03-30 13:09:00,
2013-03-30 09:14:00,45.0,32.8,30.10,NNW,340,10.4,10.4,62,0.00,CLR,,0.00,WeatherDisplay:10.37,2013-03-30 13:14:00,
2013-03-30 09:19:00,45.1,32.8,30.11,NW,322,11.5,11.5,62,0.00,CLR,,0.00,WeatherDisplay:10.37,2013-03-30 13:19:00,
2013-03-30 09:24:00,45.4,33.1,30.10,NW,323,10.4,10.4,62,0.00,CLR,,0.00,WeatherDisplay:10.37,2013-03-30 13:24:00,
2013-03-30 09:30:00,45.6,32.9,30.10,NW,323,10.4,10.4,61,0.00,CLR,,0.00,WeatherDisplay:10.37,2013-03-30 13:30:00,
2013-03-30 09:35:00,45.8,32.3,30.10,WNW,292,13.8,13.8,59,0.00,CLR,,0.00,WeatherDisplay:10.37,2013-03-30 13:35:00,
2013-03-30 09:40:00,46.1,33.0,30.10,NW,324,10.4,10.4,60,0.00,CLR,,0.00,WeatherDisplay:10.37,2013-03-30 13:40:00,
2013-03-30 09:45:00,46.4,32.8,30.10,NW,309,15.0,15.0,59,0.00,CLR,,0.00,WeatherDisplay:10.37,2013-03-30 13:45:00,
2013-03-30 09:50:00,46.7,32.7,30.10,NNW,338,10.4,10.4,58,0.00,CLR,,0.00,WeatherDisplay:10.37,2013-03-30 13:50:00,
2013-03-30 09:56:00,46.9,32.0,30.10,NNW,331,9.2,9.2,56,0.00,CLR,,0.00,WeatherDisplay:10.37,2013-03-30 13:56:00,
2013-03-30 10:02:00,46.9,32.0,30.10,NW,310,9.2,9.2,56,0.00,CLR,,0.00,WeatherDisplay:10.37,2013-03-30 14:02:00,
2013-03-30 10:07:00,47.3,32.4,30.10,West,277,9.2,9.2,56,0.00,CLR,,0.00,WeatherDisplay:10.37,2013-03-30 14:07:00,
2013-03-30 10:12:00,47.9,31.6,30.10,NW,304,10.4,10.4,53,0.00,CLR,,0.00,WeatherDisplay:10.37,2013-03-30 14:12:00,
2013-03-30 10:17:00,48.3,31.5,30.10,WNW,293,13.8,13.8,52,0.00,CLR,,0.00,WeatherDisplay:10.37,2013-03-30 14:17:00,
2013-03-30 10:22:00,48.3,31.5,30.10,NNW,333,11.5,11.5,52,0.00,CLR,,0.00,WeatherDisplay:10.37,2013-03-30 14:22:00,
2013-03-30 10:27:00,48.7,31.8,30.10,WNW,302,9.2,9.2,52,0.00,CLR,,0.00,WeatherDisplay:10.37,2013-03-30 14:27:00,
2013-03-30 10:32:00,48.8,31.9,30.10,WNW,286,12.7,12.7,52,0.00,CLR,,0.00,WeatherDisplay:10.37,2013-03-30 14:32:00,
2013-03-30 10:37:00,49.0,31.2,30.10,WNW,296,9.2,9.2,50,0.00,CLR,,0.00,WeatherDisplay:10.37,2013-03-30 14:37:00,
2013-03-30 10:42:00,49.2,31.3,30.10,NW,316,8.1,8.1,50,0.00,CLR,,0.00,WeatherDisplay:10.37,2013-03-30 14:42:00,
2013-03-30 10:48:00,49.5,31.1,30.10,WNW,303,11.5,11.5,49,0.00,CLR,,0.00,WeatherDisplay:10.37,2013-03-30 14:48:00,
2013-03-30 10:53:00,49.7,31.3,30.10,NNW,341,8.0,8.0,49,0.00,CLR,,0.00,WeatherDisplay:10.37,2013-03-30 14:53:00,
2013-03-30 10:58:00,49.7,30.3,30.10,NW,318,11.5,11.5,47,0.00,CLR,,0.00,WeatherDisplay:10.37,2013-03-30 14:58:00,
2013-03-30 11:03:00,49.9,31.0,30.10,NW,314,8.1,8.1,48,0.00,CLR,,0.00,WeatherDisplay:10.37,2013-03-30 15:03:00,
2013-03-30 11:08:00,49.6,29.1,30.09,NNW,339,10.4,10.4,45,0.00,CLR,,0.00,WeatherDisplay:10.37,2013-03-30 15:08:00,
2013-03-30 11:14:00,49.7,30.3,30.09,NW,315,5.0,5.0,47,0.00,CLR,,0.00,WeatherDisplay:10.37,2013-03-30 15:14:00,
2013-03-30 11:19:00,50.8,27.9,30.09,WNW,284,9.2,9.2,41,0.00,CLR,,0.00,WeatherDisplay:10.37,2013-03-30 15:19:00,
2013-03-30 11:24:00,50.9,27.4,30.09,NNW,336,11.5,11.5,40,0.00,CLR,,0.00,WeatherDisplay:10.37,2013-03-30 15:24:00,
2013-03-30 11:29:00,50.2,28.0,30.09,North,11,5.8,5.8,42,0.00,CLR,,0.00,WeatherDisplay:10.37,2013-03-30 15:29:00,
2013-03-30 11:34:00,50.4,28.7,30.09,NW,313,6.0,6.0,43,0.00,CLR,,0.00,WeatherDisplay:10.37,2013-03-30 15:34:00,
2013-03-30 11:39:00,50.9,28.6,30.09,NNW,341,9.2,9.2,42,0.00,CLR,,0.00,WeatherDisplay:10.37,2013-03-30 15:39:00,
2013-03-30 11:44:00,50.6,25.9,30.08,WNW,302,11.5,11.5,38,0.00,CLR,,0.00,WeatherDisplay:10.37,2013-03-30 15:44:00,
2013-03-30 11:49:00,50.7,25.3,30.08,NW,311,8.1,8.1,37,0.00,CLR,,0.00,WeatherDisplay:10.37,2013-03-30 15:49:00,
2013-03-30 11:55:00,50.9,26.2,30.08,NNW,338,11.5,11.5,38,0.00,CLR,,0.00,WeatherDisplay:10.37,2013-03-30 15:55:00,
2013-03-30 12:00:00,50.7,27.2,30.08,NW,307,12.7,12.7,40,0.00,CLR,,0.00,WeatherDisplay:10.37,2013-03-30 16:00:00,
2013-03-30 12:05:00,51.2,25.8,30.08,NNW,340,11.5,11.5,37,0.00,SCT,,0.00,WeatherDisplay:10.37,2013-03-30 16:05:00,
2013-03-30 12:10:00,51.2,24.5,30.08,NW,311,8.1,8.1,35,0.00,SCT,,0.00,WeatherDisplay:10.37,2013-03-30 16:10:00,
2013-03-30 12:15:00,51.8,26.3,30.08,WNW,302,9.2,9.2,37,0.00,SCT,,0.00,WeatherDisplay:10.37,2013-03-30 16:15:00,
2013-03-30 12:20:00,52.1,25.3,30.08,North,355,6.9,6.9,35,0.00,SCT,,0.00,WeatherDisplay:10.37,2013-03-30 16:20:00,
2013-03-30 12:26:00,52.4,25.5,30.07,WNW,295,12.7,12.7,35,0.00,SCT,,0.00,WeatherDisplay:10.37,2013-03-30 16:26:00,
2013-03-30 12:31:00,52.1,25.3,30.07,WNW,283,9.2,9.2,35,0.00,SCT,,0.00,WeatherDisplay:10.37,2013-03-30 16:31:00,
2013-03-30 12:36:00,51.8,25.7,30.07,NNW,333,10.4,10.4,36,0.00,SCT,,0.00,WeatherDisplay:10.37,2013-03-30 16:36:00,
2013-03-30 12:41:00,51.3,26.5,30.07,North,349,10.4,10.4,38,0.00,SCT,,0.00,WeatherDisplay:10.37,2013-03-30 16:41:00,
2013-03-30 12:47:00,51.9,27.7,30.07,NNW,336,11.5,11.5,39,0.00,SCT,,0.00,WeatherDisplay:10.37,2013-03-30 16:47:00,
2013-03-30 12:52:00,51.7,28.1,30.07,NNW,336,13.0,13.0,40,0.00,SCT,,0.00,WeatherDisplay:10.37,2013-03-30 16:52:00,
2013-03-30 12:57:00,51.9,26.4,30.06,NNE,32,9.2,9.2,37,0.00,SCT,,0.00,WeatherDisplay:10.37,2013-03-30 16:57:00,
2013-03-30 13:02:00,51.8,27.6,30.06,NNE,15,11.0,11.0,39,0.00,SCT,,0.00,WeatherDisplay:10.37,2013-03-30 17:02:00,
2013-03-30 13:08:00,51.9,28.3,30.06,North,351,15.0,15.0,40,0.00,SCT,,0.00,WeatherDisplay:10.37,2013-03-30 17:08:00,
2013-03-30 13:13:00,52.0,29.0,30.06,NW,311,8.1,8.1,41,0.00,SCT,,0.00,WeatherDisplay:10.37,2013-03-30 17:13:00,
2013-03-30 13:18:00,52.8,25.9,30.06,NW,313,10.0,10.0,35,0.00,SCT,,0.00,WeatherDisplay:10.37,2013-03-30 17:18:00,
2013-03-30 13:23:00,52.9,26.6,30.06,North,5,11.5,11.5,36,0.00,SCT,,0.00,WeatherDisplay:10.37,2013-03-30 17:23:00,
2013-03-30 13:29:00,52.4,26.2,30.06,NW,313,10.4,10.4,36,0.00,SCT,,0.00,WeatherDisplay:10.37,2013-03-30 17:29:00,
2013-03-30 13:34:00,52.4,27.5,30.05,NNW,344,11.5,11.5,38,0.00,SCT,,0.00,WeatherDisplay:10.37,2013-03-30 17:34:00,
2013-03-30 13:40:00,51.9,27.7,30.05,NNW,332,5.8,5.8,39,0.00,SCT,,0.00,WeatherDisplay:10.37,2013-03-30 17:40:00,
2013-03-30 13:45:00,51.8,28.3,30.05,NNW,341,3.0,12.0,40,0.00,SCT,,0.00,WeatherDisplay:10.37,2013-03-30 17:45:00,
2013-03-30 13:50:00,52.6,24.3,30.05,West,267,9.2,9.2,33,0.00,SCT,,0.00,WeatherDisplay:10.37,2013-03-30 17:50:00,
2013-03-30 13:55:00,53.1,23.2,30.05,NW,321,5.8,5.8,31,0.00,SCT,,0.00,WeatherDisplay:10.37,2013-03-30 17:55:00,
2013-03-30 14:00:00,53.0,23.9,30.04,NW,312,11.5,11.5,32,0.00,SCT,,0.00,WeatherDisplay:10.37,2013-03-30 18:00:00,
2013-03-30 14:05:00,53.0,23.1,30.04,NW,304,11.5,11.5,31,0.00,SCT,,0.00,WeatherDisplay:10.37,2013-03-30 18:05:00,
2013-03-30 14:11:00,53.1,21.6,30.04,NNW,333,8.0,8.0,29,0.00,SCT,,0.00,WeatherDisplay:10.37,2013-03-30 18:11:00,
2013-03-30 14:16:00,53.5,22.8,30.04,NW,319,3.5,3.5,30,0.00,SCT,,0.00,WeatherDisplay:10.37,2013-03-30 18:16:00,
2013-03-30 14:21:00,53.5,25.8,30.04,West,272,7.0,7.0,34,0.00,SCT,,0.00,WeatherDisplay:10.37,2013-03-30 18:21:00,
2013-03-30 14:27:00,53.3,24.9,30.03,WNW,292,11.5,11.5,33,0.00,SCT,,0.00,WeatherDisplay:10.37,2013-03-30 18:27:00,
2013-03-30 14:32:00,53.8,23.8,30.03,WNW,283,5.8,5.8,31,0.00,SCT,,0.00,WeatherDisplay:10.37,2013-03-30 18:32:00,
2013-03-30 14:37:00,54.1,23.3,30.03,NW,311,6.0,6.0,30,0.00,SCT,,0.00,WeatherDisplay:10.37,2013-03-30 18:37:00,
2013-03-30 14:43:00,54.1,24.1,30.03,NNW,338,7.0,7.0,31,0.00,SCT,,0.00,WeatherDisplay:10.37,2013-03-30 18:43:00,
2013-03-30 14:48:00,54.4,25.1,30.03,NW,325,12.0,12.0,32,0.00,SCT,,0.00,WeatherDisplay:10.37,2013-03-30 18:48:00,
2013-03-30 14:53:00,54.0,24.0,30.03,NNW,332,14.0,14.0,31,0.00,SCT,,0.00,WeatherDisplay:10.37,2013-03-30 18:53:00,
2013-03-30 14:58:00,54.3,23.5,30.03,WNW,296,16.1,16.1,30,0.00,SCT,,0.00,WeatherDisplay:10.37,2013-03-30 18:58:00,
2013-03-30 15:03:00,54.6,23.7,30.03,NW,309,11.5,11.5,30,0.00,SCT,,0.00,WeatherDisplay:10.37,2013-03-30 19:03:00,
2013-03-30 15:08:00,54.5,22.9,30.03,North,355,9.2,9.2,29,0.00,SCT,,0.00,WeatherDisplay:10.37,2013-03-30 19:08:00,
2013-03-30 15:13:00,54.8,24.7,30.03,NW,319,9.2,9.2,31,0.00,SCT,,0.00,WeatherDisplay:10.37,2013-03-30 19:13:00,
2013-03-30 15:18:00,55.1,23.4,30.03,WSW,253,11.5,11.5,29,0.00,SCT,,0.00,WeatherDisplay:10.37,2013-03-30 19:18:00,
2013-03-30 15:23:00,55.3,24.4,30.03,WNW,300,9.2,9.2,30,0.00,SCT,,0.00,WeatherDisplay:10.37,2013-03-30 19:23:00,
2013-03-30 15:28:00,55.2,24.3,30.02,NW,308,10.0,10.0,30,0.00,SCT,,0.00,WeatherDisplay:10.37,2013-03-30 19:28:00,
2013-03-30 15:34:00,54.8,23.9,30.02,NW,315,9.2,9.2,30,0.00,SCT,,0.00,WeatherDisplay:10.37,2013-03-30 19:34:00,
2013-03-30 15:39:00,54.7,23.0,30.02,NNW,330,11.5,11.5,29,0.00,SCT,,0.00,WeatherDisplay:10.37,2013-03-30 19:39:00,
2013-03-30 15:44:00,55.5,22.0,30.02,NW,316,12.7,12.7,27,0.00,SCT,,0.00,WeatherDisplay:10.37,2013-03-30 19:44:00,
2013-03-30 15:49:00,55.1,21.7,30.02,NW,316,10.4,10.4,27,0.00,SCT,,0.00,WeatherDisplay:10.37,2013-03-30 19:49:00,
2013-03-30 15:54:00,55.8,21.4,30.02,NW,310,12.7,12.7,26,0.00,SCT,,0.00,WeatherDisplay:10.37,2013-03-30 19:54:00,
2013-03-30 16:00:00,56.0,21.6,30.02,WNW,289,6.0,16.0,26,0.00,SCT,,0.00,WeatherDisplay:10.37,2013-03-30 20:00:00,
2013-03-30 16:05:00,55.9,20.5,30.02,WNW,298,11.5,11.5,25,0.00,SCT,,0.00,WeatherDisplay:10.37,2013-03-30 20:05:00,
2013-03-30 16:10:00,56.0,23.3,30.02,West,281,15.0,15.0,28,0.00,SCT,,0.00,WeatherDisplay:10.37,2013-03-30 20:10:00,
2013-03-30 16:15:00,56.1,21.6,30.02,West,259,9.2,9.2,26,0.00,SCT,,0.00,WeatherDisplay:10.37,2013-03-30 20:15:00,
2013-03-30 16:20:00,56.0,20.6,30.02,NW,306,8.1,8.1,25,0.00,SCT,,0.00,WeatherDisplay:10.37,2013-03-30 20:20:00,
2013-03-30 16:26:00,56.7,20.3,30.02,WNW,300,13.8,13.8,24,0.00,SCT,,0.00,WeatherDisplay:10.37,2013-03-30 20:26:00,
2013-03-30 16:31:00,55.9,19.6,30.02,NNW,347,11.5,11.5,24,0.00,SCT,,0.00,WeatherDisplay:10.37,2013-03-30 20:31:00,
2013-03-30 16:37:00,56.3,20.9,30.02,NNW,327,13.8,13.8,25,0.00,SCT,,0.00,WeatherDisplay:10.37,2013-03-30 20:37:00,
2013-03-30 16:42:00,55.7,21.3,30.02,NW,324,19.6,19.6,26,0.00,SCT,,0.00,WeatherDisplay:10.37,2013-03-30 20:42:00,
2013-03-30 16:47:00,55.5,22.0,30.02,WNW,295,15.0,15.0,27,0.00,SCT,,0.00,WeatherDisplay:10.37,2013-03-30 20:47:00,
2013-03-30 16:52:00,55.5,22.9,30.02,NNW,346,11.5,11.5,28,0.00,SCT,,0.00,WeatherDisplay:10.37,2013-03-30 20:52:00,
2013-03-30 16:57:00,55.7,21.3,30.02,SW,219,6.9,6.9,26,0.00,SCT,,0.00,WeatherDisplay:10.37,2013-03-30 20:57:00,
2013-03-30 17:02:00,55.7,22.2,30.03,West,263,6.9,6.9,27,0.00,SCT,,0.00,WeatherDisplay:10.37,2013-03-30 21:02:00,
2013-03-30 17:07:00,55.5,22.0,30.03,WNW,289,9.2,9.2,27,0.00,SCT,,0.00,WeatherDisplay:10.37,2013-03-30 21:07:00,
2013-03-30 17:13:00,55.3,22.7,30.03,WNW,288,4.6,4.6,28,0.00,SCT,,0.00,WeatherDisplay:10.37,2013-03-30 21:13:00,
2013-03-30 17:18:00,55.6,22.1,30.03,WNW,291,8.1,8.1,27,0.00,SCT,,0.00,WeatherDisplay:10.37,2013-03-30 21:18:00,
2013-03-30 17:23:00,55.9,23.2,30.03,NW,326,8.1,8.1,28,0.00,SCT,,0.00,WeatherDisplay:10.37,2013-03-30 21:23:00,
2013-03-30 17:28:00,55.6,24.6,30.02,WSW,240,5.8,5.8,30,0.00,SCT,,0.00,WeatherDisplay:10.37,2013-03-30 21:28:00,
2013-03-30 17:34:00,55.6,23.0,30.03,West,275,10.4,10.4,28,0.00,SCT,,0.00,WeatherDisplay:10.37,2013-03-30 21:34:00,
2013-03-30 17:39:00,55.6,23.0,30.03,West,275,9.2,9.2,28,0.00,SCT,,0.00,WeatherDisplay:10.37,2013-03-30 21:39:00,
2013-03-30 17:44:00,55.4,23.6,30.03,West,273,6.9,6.9,29,0.00,SCT,,0.00,WeatherDisplay:10.37,2013-03-30 21:44:00,
2013-03-30 17:50:00,55.3,23.5,30.03,West,279,6.9,6.9,29,0.00,SCT,,0.00,WeatherDisplay:10.37,2013-03-30 21:50:00,
2013-03-30 17:55:00,55.5,24.5,30.03,NW,314,4.6,4.6,30,0.00,SCT,,0.00,WeatherDisplay:10.37,2013-03-30 21:55:00,
2013-03-30 18:00:00,55.7,23.9,30.03,WNW,298,3.0,9.0,29,0.00,SCT,,0.00,WeatherDisplay:10.37,2013-03-30 22:00:00,
2013-03-30 18:05:00,55.8,23.1,30.03,WNW,294,9.2,9.2,28,0.00,OVC,,0.00,WeatherDisplay:10.37,2013-03-30 22:05:00,
2013-03-30 18:10:00,55.6,23.0,30.03,NW,312,8.1,8.1,28,0.00,OVC,,0.00,WeatherDisplay:10.37,2013-03-30 22:10:00,
2013-03-30 18:15:00,55.3,25.1,30.03,NW,317,6.9,6.9,31,0.00,OVC,,0.00,WeatherDisplay:10.37,2013-03-30 22:15:00,
2013-03-30 18:20:00,55.4,23.6,30.03,WNW,291,7.0,7.0,29,0.00,OVC,,0.00,WeatherDisplay:10.37,2013-03-30 22:20:00,
2013-03-30 18:26:00,55.3,23.5,30.04,WNW,294,4.6,4.6,29,0.00,OVC,,0.00,WeatherDisplay:10.37,2013-03-30 22:26:00,
2013-03-30 18:31:00,55.1,23.4,30.04,NW,325,9.2,9.2,29,0.00,OVC,,0.00,WeatherDisplay:10.37,2013-03-30 22:31:00,
2013-03-30 18:36:00,55.1,23.4,30.04,WNW,299,6.9,6.9,29,0.00,OVC,,0.00,WeatherDisplay:10.37,2013-03-30 22:36:00,
2013-03-30 18:42:00,55.0,24.1,30.04,WNW,292,8.1,8.1,30,0.00,OVC,,0.00,WeatherDisplay:10.37,2013-03-30 22:42:00,
2013-03-30 18:47:00,54.8,23.9,30.04,NW,316,4.6,4.6,30,0.00,OVC,,0.00,WeatherDisplay:10.37,2013-03-30 22:47:00,
2013-03-30 18:52:00,54.7,23.8,30.04,NW,305,4.6,4.6,30,0.00,OVC,,0.00,WeatherDisplay:10.37,2013-03-30 22:52:00,
2013-03-30 18:57:00,54.7,23.8,30.04,WNW,290,1.1,0.0,30,0.00,OVC,,0.00,WeatherDisplay:10.37,2013-03-30 22:57:00,
2013-03-30 19:02:00,54.6,23.7,30.04,West,281,3.5,3.5,30,0.00,CLR,,0.00,WeatherDisplay:10.37,2013-03-30 23:02:00,
2013-03-30 19:08:00,54.5,23.7,30.05,West,281,2.3,2.3,30,0.00,CLR,,0.00,WeatherDisplay:10.37,2013-03-30 23:08:00,
2013-03-30 19:13:00,54.3,24.3,30.05,West,273,2.3,2.3,31,0.00,CLR,,0.00,WeatherDisplay:10.37,2013-03-30 23:13:00,
2013-03-30 19:18:00,54.0,25.5,30.05,West,273,1.1,1.1,33,0.00,CLR,,0.00,WeatherDisplay:10.37,2013-03-30 23:18:00,
2013-03-30 19:23:00,53.1,28.1,30.05,West,273,1.1,0.0,38,0.00,CLR,,0.00,WeatherDisplay:10.37,2013-03-30 23:23:00,
2013-03-30 19:28:00,52.7,28.4,30.05,West,273,1.1,0.0,39,0.00,CLR,,0.00,WeatherDisplay:10.37,2013-03-30 23:28:00,
2013-03-30 19:33:00,52.3,28.7,30.05,West,273,1.1,1.1,40,0.00,CLR,,0.00,WeatherDisplay:10.37,2013-03-30 23:33:00,
2013-03-30 19:38:00,51.7,29.3,30.05,West,273,1.1,1.1,42,0.00,CLR,,0.00,WeatherDisplay:10.37,2013-03-30 23:38:00,
2013-03-30 19:43:00,51.3,29.0,30.06,West,273,3.5,3.5,42,0.00,CLR,,0.00,WeatherDisplay:10.37,2013-03-30 23:43:00,
2013-03-30 19:49:00,50.8,28.5,30.06,West,273,3.5,3.5,42,0.00,CLR,,0.00,WeatherDisplay:10.37,2013-03-30 23:49:00,
2013-03-30 19:54:00,50.3,29.2,30.06,West,273,3.5,3.5,44,0.00,CLR,,0.00,WeatherDisplay:10.37,2013-03-30 23:54:00,
2013-03-30 19:59:00,49.9,28.8,30.06,West,273,2.3,2.3,44,0.00,CLR,,0.00,WeatherDisplay:10.37,2013-03-30 23:59:00,
2013-03-30 20:05:00,49.5,30.1,30.07,West,273,2.0,2.0,47,0.00,CLR,,0.00,WeatherDisplay:10.37,2013-03-31 00:05:00,
2013-03-30 20:10:00,49.4,30.0,30.07,West,273,1.1,1.1,47,0.00,CLR,,0.00,WeatherDisplay:10.37,2013-03-31 00:10:00,
2013-03-30 20:15:00,49.2,29.8,30.07,West,273,1.1,0.0,47,0.00,CLR,,0.00,WeatherDisplay:10.37,2013-03-31 00:15:00,
2013-03-30 20:20:00,49.1,30.7,30.07,West,273,0.0,0.0,49,0.00,CLR,,0.00,WeatherDisplay:10.37,2013-03-31 00:20:00,
2013-03-30 20:25:00,49.0,31.2,30.08,West,273,0.0,0.0,50,0.00,CLR,,0.00,WeatherDisplay:10.37,2013-03-31 00:25:00,
2013-03-30 20:30:00,48.7,30.4,30.08,West,273,0.0,0.1,49,0.00,CLR,,0.00,WeatherDisplay:10.37,2013-03-31 00:30:00,
2013-03-30 20:35:00,48.4,30.1,30.08,West,273,1.1,0.0,49,0.00,CLR,,0.00,WeatherDisplay:10.37,2013-03-31 00:35:00,
2013-03-30 20:41:00,48.0,30.2,30.08,West,273,1.1,1.1,50,0.00,CLR,,0.00,WeatherDisplay:10.37,2013-03-31 00:41:00,
2013-03-30 20:46:00,47.6,32.2,30.08,West,273,0.0,0.0,55,0.00,CLR,,0.00,WeatherDisplay:10.37,2013-03-31 00:46:00,
2013-03-30 20:51:00,46.7,30.9,30.09,SSW,198,9.0,9.0,54,0.00,CLR,,0.00,WeatherDisplay:10.37,2013-03-31 00:51:00,
2013-03-30 20:56:00,47.7,30.9,30.09,SW,234,11.5,11.5,52,0.00,CLR,,0.00,WeatherDisplay:10.37,2013-03-31 00:56:00,
2013-03-30 21:01:00,47.9,31.6,30.09,SSW,203,10.4,10.4,53,0.00,CLR,,0.00,WeatherDisplay:10.37,2013-03-31 01:01:00,
2013-03-30 21:06:00,47.7,31.9,30.09,SW,217,11.5,11.5,54,0.00,CLR,,0.00,WeatherDisplay:10.37,2013-03-31 01:06:00,
2013-03-30 21:12:00,47.4,32.5,30.09,WSW,244,7.0,7.0,56,0.00,CLR,,0.00,WeatherDisplay:10.37,2013-03-31 01:12:00,
2013-03-30 21:17:00,47.3,31.9,30.09,WSW,248,8.1,8.1,55,0.00,CLR,,0.00,WeatherDisplay:10.37,2013-03-31 01:17:00,
2013-03-30 21:22:00,47.2,32.7,30.10,WSW,248,9.2,9.2,57,0.00,CLR,,0.00,WeatherDisplay:10.37,2013-03-31 01:22:00,
2013-03-30 21:27:00,47.0,32.5,30.10,West,259,5.0,5.0,57,0.00,CLR,,0.00,WeatherDisplay:10.37,2013-03-31 01:27:00,
2013-03-30 21:32:00,46.9,32.4,30.10,SW,229,10.4,10.4,57,0.00,CLR,,0.00,WeatherDisplay:10.37,2013-03-31 01:32:00,
2013-03-30 21:38:00,46.7,32.7,30.10,WSW,252,4.6,5.0,58,0.00,CLR,,0.00,WeatherDisplay:10.37,2013-03-31 01:38:00,
2013-03-30 21:43:00,46.4,33.3,30.10,West,261,4.6,4.6,60,0.00,CLR,,0.00,WeatherDisplay:10.37,2013-03-31 01:43:00,
2013-03-30 21:48:00,46.1,33.4,30.10,WSW,251,5.8,5.8,61,0.00,CLR,,0.00,WeatherDisplay:10.37,2013-03-31 01:48:00,
2013-03-30 21:53:00,45.9,33.2,30.11,SW,226,6.9,6.9,61,0.00,CLR,,0.00,WeatherDisplay:10.37,2013-03-31 01:53:00,
2013-03-30 21:58:00,45.8,33.5,30.11,West,263,3.5,3.5,62,0.00,CLR,,0.00,WeatherDisplay:10.37,2013-03-31 01:58:00,
2013-03-30 22:03:00,45.8,33.1,30.11,WSW,240,5.8,5.8,61,0.00,CLR,,0.00,WeatherDisplay:10.37,2013-03-31 02:03:00,
2013-03-30 22:08:00,45.6,33.3,30.10,SW,231,4.6,4.6,62,0.00,CLR,,0.00,WeatherDisplay:10.37,2013-03-31 02:08:00,
2013-03-30 22:13:00,45.6,33.3,30.10,SW,232,2.3,2.3,62,0.00,CLR,,0.00,WeatherDisplay:10.37,2013-03-31 02:13:00,
2013-03-30 22:18:00,45.5,33.6,30.11,SW,232,1.0,1.0,63,0.00,CLR,,0.00,WeatherDisplay:10.37,2013-03-31 02:18:00,
2013-03-30 22:23:00,45.5,33.6,30.11,SW,232,0.0,0.0,63,0.00,CLR,,0.00,WeatherDisplay:10.37,2013-03-31 02:23:00,
2013-03-30 22:29:00,45.4,33.5,30.11,SW,232,0.0,0.0,63,0.00,CLR,,0.00,WeatherDisplay:10.37,2013-03-31 02:29:00,
2013-03-30 22:34:00,45.3,33.4,30.11,SW,232,0.0,0.0,63,0.00,CLR,,0.00,WeatherDisplay:10.37,2013-03-31 02:34:00,
2013-03-30 22:39:00,45.2,33.3,30.11,SW,232,0.0,0.0,63,0.00,CLR,,0.00,WeatherDisplay:10.37,2013-03-31 02:39:00,
2013-03-30 22:44:00,45.1,33.6,30.11,SW,232,0.0,0.0,64,0.00,CLR,,0.00,WeatherDisplay:10.37,2013-03-31 02:44:00,
2013-03-30 22:49:00,45.0,33.2,30.11,SW,232,0.0,0.0,63,0.00,CLR,,0.00,WeatherDisplay:10.37,2013-03-31 02:49:00,
2013-03-30 22:54:00,44.9,33.1,30.11,SW,232,0.0,0.0,63,0.00,CLR,,0.00,WeatherDisplay:10.37,2013-03-31 02:54:00,
2013-03-30 22:59:00,44.8,33.0,30.11,SW,232,0.0,0.0,63,0.00,CLR,,0.00,WeatherDisplay:10.37,2013-03-31 02:59:00,
2013-03-30 23:05:00,44.7,32.9,30.10,SW,232,0.0,0.0,63,0.00,CLR,,0.00,WeatherDisplay:10.37,2013-03-31 03:05:00,
2013-03-30 23:10:00,44.6,33.2,30.10,SW,232,2.3,2.3,64,0.00,CLR,,0.00,WeatherDisplay:10.37,2013-03-31 03:10:00,
2013-03-30 23:15:00,44.5,35.0,30.11,SW,232,0.0,2.0,69,0.00,CLR,,0.00,WeatherDisplay:10.37,2013-03-31 03:15:00,
2013-03-30 23:20:00,44.2,35.0,30.11,SW,232,0.0,0.0,70,0.00,CLR,,0.00,WeatherDisplay:10.37,2013-03-31 03:20:00,
2013-03-30 23:25:00,43.9,35.1,30.11,SW,232,0.0,0.0,71,0.00,CLR,,0.00,WeatherDisplay:10.37,2013-03-31 03:25:00,
2013-03-30 23:30:00,43.4,34.6,30.11,SW,232,0.0,0.0,71,0.00,CLR,,0.00,WeatherDisplay:10.37,2013-03-31 03:30:00,
2013-03-30 23:35:00,42.9,34.5,30.11,SW,232,0.0,0.0,72,0.00,CLR,,0.00,WeatherDisplay:10.37,2013-03-31 03:35:00,
2013-03-30 23:40:00,42.7,34.6,30.11,SW,232,0.0,0.0,73,0.00,CLR,,0.00,WeatherDisplay:10.37,2013-03-31 03:40:00,
2013-03-30 23:45:00,42.4,34.7,30.11,SW,232,1.1,1.1,74,0.00,CLR,,0.00,WeatherDisplay:10.37,2013-03-31 03:45:00,
2013-03-30 23:50:00,42.2,34.5,30.12,SW,232,0.0,0.1,74,0.00,CLR,,0.00,WeatherDisplay:10.37,2013-03-31 03:50:00,
2013-03-30 23:55:00,41.9,34.2,30.12,SW,232,0.0,0.0,74,0.00,CLR,,0.00,WeatherDisplay:10.37,2013-03-31 03:55:00,